GPS BIII-2

Last updated on Sat Jun 27 2026 00:02:56 GMT+0000 (Coordinated Universal Time)

1 44506U 19056A 26176.86217744 -.00000105 00000+0 00000+0 0 9996 2 44506 55.6325 330.7975 0062408 197.6705 333.6981 2.00570107 50242
UTC large
Height (km)
Speed (km/s)
/
Latitude / Longitude
Inclination (degrees)
Orbital Period (minutes)
Azimuth
Elevation
Range (km)
Doppler Factor

Next 0 passes for location: London (51.5072 / 0.1276)

No passes found over London.
GPS BIII-2